Weather History for Perry, FL

Change the Weather History Date:

Saturday, March 22, 2014

  Actual Average (KCTY) Record (KCTY)
Temperature  
Mean Temperature 66 °F 63 °F  
Max Temperature 78 °F 77 °F 84 °F (2011)
Min Temperature 55 °F 50 °F 39 °F (1998)
Degree Days  
Heating Degree Days 0 3  
Month to date heating degree days 109  
Since 1 July heating degree days 1229  
Cooling Degree Days 2 2  
Month to date cooling degree days 26  
Year to date cooling degree days 53  
Growing Degree Days 16 (Base 50)    
Moisture  
Dew Point 57 °F    
Average Humidity 78    
Maximum Humidity 100    
Minimum Humidity 32    
Precipitation  
Precipitation 0.00 in 0.14 in 0.03 in (2005)
Month to date precipitation 2.99  
Year to date precipitation 10.30  
Sea Level Pressure  
Sea Level Pressure 30.04 in    
Wind  
Wind Speed 3 mph (West)    
Max Wind Speed 13 mph    
Max Gust Speed 16 mph    
Visibility 10 miles    
Events      
T = Trace of Precipitation, MM = Missing Value Source: NWS Daily Summary

Daily Weather History Graph

Daily Weather History Graph

Search for Another Location

Airport:

Trip Planner

Search our weather history database for the weather conditions in past years. The results will help you decide how hot, cold, wet, or windy it might be!

Date:

Astronomy

Mar. 22, 2014 Rise Set
Actual Time 7:35 AM EDT 7:46 PM EDT
Civil Twilight 7:11 AM EDT 8:10 PM EDT
Nautical Twilight 6:43 AM EDT 8:38 PM EDT
Astronomical Twilight 6:15 AM EDT 9:07 PM EDT
Moon 12:45 AM EDT (3/22) 11:38 AM EDT (3/22)
Length of Visible Light 12h 59m
Length of Day
12h 11m
Waning Gibbous, 65% of the Moon is Illuminated
Mar 22
Waning Gibbous
Mar 23
Last Quarter
Mar 30
New
Apr 7
First Quarter
Apr 15
Full

Hourly Weather History & Observations

Time (EDT) Temp. Dew Point Humidity Pressure Visibility Wind Dir Wind Speed Gust Speed Precip Events Conditions
12:15 AM 60.8 °F 59.0 °F 94% 30.07 in 10.0 mi Calm Calm - N/A   Scattered Clouds
12:35 AM 60.8 °F 59.0 °F 94% 30.07 in 7.0 mi Calm Calm - N/A   Scattered Clouds
12:55 AM 59.0 °F 57.2 °F 94% 30.07 in 10.0 mi Calm Calm - N/A   Scattered Clouds
1:15 AM 59.0 °F 57.2 °F 94% 30.07 in 10.0 mi Calm Calm - N/A   Scattered Clouds
1:35 AM 59.0 °F 57.2 °F 94% 30.06 in 10.0 mi Calm Calm - N/A   Clear
1:55 AM 59.0 °F 57.2 °F 94% 30.05 in 10.0 mi East 4.6 mph - N/A   Clear
2:15 AM 59.0 °F 57.2 °F 94% 30.05 in 10.0 mi East 3.5 mph - N/A   Clear
2:35 AM 59.0 °F 57.2 °F 94% 30.04 in 10.0 mi ESE 4.6 mph - N/A   Clear
2:55 AM 60.8 °F 57.2 °F 88% 30.04 in 10.0 mi ESE 3.5 mph - N/A   Clear
3:15 AM 62.6 °F 57.2 °F 82% 30.04 in 10.0 mi Calm Calm - N/A   Clear
3:35 AM 60.8 °F 57.2 °F 88% 30.03 in 10.0 mi ESE 3.5 mph - N/A   Clear
3:55 AM 59.0 °F 55.4 °F 88% 30.03 in 10.0 mi Calm Calm - N/A   Clear
4:15 AM 57.2 °F 55.4 °F 94% 30.02 in 10.0 mi Calm Calm - N/A   Mostly Cloudy
4:35 AM 59.0 °F 57.2 °F 94% 30.02 in 10.0 mi Calm Calm - N/A   Mostly Cloudy
4:55 AM 59.0 °F 57.2 °F 94% 30.02 in 10.0 mi Calm Calm - N/A   Mostly Cloudy
5:15 AM 59.0 °F 57.2 °F 94% 30.02 in 10.0 mi Calm Calm - N/A   Scattered Clouds
5:35 AM 59.0 °F 57.2 °F 94% 30.02 in 10.0 mi Calm Calm - N/A   Scattered Clouds
5:55 AM 59.0 °F 57.2 °F 94% 30.03 in 10.0 mi Calm Calm - N/A   Scattered Clouds
6:15 AM 59.0 °F 57.2 °F 94% 30.04 in 10.0 mi Calm Calm - N/A   Mostly Cloudy
6:35 AM 59.0 °F 57.2 °F 94% 30.04 in 10.0 mi Calm Calm - N/A   Mostly Cloudy
6:55 AM 57.2 °F 57.2 °F 100% 30.04 in 7.0 mi Calm Calm - N/A   Scattered Clouds
7:15 AM 59.0 °F 57.2 °F 94% 30.05 in 10.0 mi Calm Calm - N/A   Clear
7:35 AM 59.0 °F 57.2 °F 94% 30.06 in 7.0 mi Calm Calm - N/A   Scattered Clouds
7:55 AM 57.2 °F 57.2 °F 100% 30.06 in 10.0 mi Calm Calm - N/A   Scattered Clouds
8:15 AM 55.4 °F 55.4 °F 100% 30.07 in 7.0 mi Calm Calm - N/A   Scattered Clouds
8:35 AM 59.0 °F 59.0 °F 100% 30.07 in 7.0 mi Calm Calm - N/A   Scattered Clouds
8:55 AM 59.0 °F 59.0 °F 100% 30.08 in 7.0 mi Calm Calm - N/A   Mostly Cloudy
9:15 AM 62.6 °F 60.8 °F 94% 30.08 in 10.0 mi West 5.8 mph - N/A   Overcast
9:35 AM 62.6 °F 60.8 °F 94% 30.08 in 10.0 mi WNW 9.2 mph - N/A   Overcast
9:55 AM 64.4 °F 59.0 °F 83% 30.08 in 10.0 mi WNW 6.9 mph - N/A   Overcast
10:15 AM 64.4 °F 59.0 °F 83% 30.09 in 10.0 mi WNW 9.2 mph - N/A   Mostly Cloudy
10:35 AM 66.2 °F 59.0 °F 78% 30.09 in 10.0 mi West 10.4 mph - N/A   Scattered Clouds
10:55 AM 68.0 °F 57.2 °F 68% 30.09 in 10.0 mi WNW 9.2 mph - N/A   Clear
11:15 AM 68.0 °F 57.2 °F 68% 30.08 in 10.0 mi NW 8.1 mph - N/A   Clear
11:35 AM 69.8 °F 57.2 °F 64% 30.08 in 10.0 mi WNW 8.1 mph - N/A   Clear
11:55 AM 69.8 °F 57.2 °F 64% 30.08 in 10.0 mi WNW 9.2 mph - N/A   Clear
12:15 PM 71.6 °F 57.2 °F 60% 30.07 in 10.0 mi West 6.9 mph - N/A   Scattered Clouds
12:35 PM 71.6 °F 59.0 °F 64% 30.07 in 10.0 mi WNW 6.9 mph - N/A   Mostly Cloudy
12:55 PM 71.6 °F 55.4 °F 57% 30.06 in 10.0 mi West 5.8 mph - N/A   Mostly Cloudy
1:15 PM 71.6 °F 55.4 °F 57% 30.05 in 10.0 mi NW 5.8 mph - N/A   Mostly Cloudy
1:35 PM 73.4 °F 53.6 °F 50% 30.04 in 10.0 mi North 6.9 mph - N/A   Scattered Clouds
1:55 PM 73.4 °F 53.6 °F 50% 30.02 in 10.0 mi Calm Calm - N/A   Scattered Clouds
2:15 PM 73.4 °F 51.8 °F 47% 30.01 in 10.0 mi ENE 3.5 mph - N/A   Clear
2:35 PM 75.2 °F 50.0 °F 41% 30.00 in 10.0 mi NE 4.6 mph - N/A   Clear
2:55 PM 77.0 °F 51.8 °F 41% 30.00 in 10.0 mi North 4.6 mph - N/A   Clear
3:15 PM 77.0 °F 50.0 °F 39% 29.99 in 10.0 mi NE 3.5 mph - N/A   Clear
3:35 PM 78.8 °F 46.4 °F 32% 29.99 in 10.0 mi Calm Calm - N/A   Clear
3:55 PM 78.8 °F 50.0 °F 36% 29.98 in 10.0 mi WSW 6.9 mph - N/A   Clear
4:15 PM 77.0 °F 55.4 °F 47% 29.97 in 10.0 mi SW 10.4 mph 16.1 mph N/A   Clear
4:35 PM 77.0 °F 55.4 °F 47% 29.98 in 10.0 mi SW 10.4 mph - N/A   Clear
4:55 PM 77.0 °F 55.4 °F 47% 29.98 in 10.0 mi WSW 10.4 mph 16.1 mph N/A   Clear
5:15 PM 73.4 °F 55.4 °F 53% 29.98 in 10.0 mi SW 11.5 mph - N/A   Clear
5:35 PM 75.2 °F 55.4 °F 50% 29.98 in 10.0 mi WSW 9.2 mph - N/A   Clear
5:55 PM 75.2 °F 55.4 °F 50% 29.99 in 10.0 mi SW 10.4 mph - N/A   Clear
6:15 PM 73.4 °F 55.4 °F 53% 29.99 in 10.0 mi WSW 10.4 mph - N/A   Clear
6:35 PM 73.4 °F 55.4 °F 53% 29.99 in 10.0 mi SW 10.4 mph - N/A   Clear
6:55 PM 71.6 °F 55.4 °F 57% 30.00 in 10.0 mi WSW 12.7 mph 16.1 mph N/A   Clear
7:15 PM 69.8 °F 55.4 °F 60% 30.00 in 10.0 mi SW 10.4 mph - N/A   Clear
7:35 PM 68.0 °F 57.2 °F 68% 30.01 in 10.0 mi WSW 10.4 mph - N/A   Clear
7:55 PM 66.2 °F 59.0 °F 78% 30.02 in 10.0 mi SW 6.9 mph - N/A   Clear
8:15 PM 64.4 °F 59.0 °F 83% 30.03 in 10.0 mi SW 4.6 mph - N/A   Clear
8:35 PM 62.6 °F 59.0 °F 88% 30.03 in 10.0 mi WSW 4.6 mph - N/A   Clear
8:55 PM 62.6 °F 59.0 °F 88% 30.03 in 10.0 mi WSW 3.5 mph - N/A   Clear
9:15 PM 62.6 °F 59.0 °F 88% 30.04 in 10.0 mi Calm Calm - N/A   Clear
9:35 PM 60.8 °F 59.0 °F 94% 30.05 in 10.0 mi West 3.5 mph - N/A   Scattered Clouds
9:55 PM 60.8 °F 59.0 °F 94% 30.06 in 10.0 mi West 3.5 mph - N/A   Clear
10:15 PM 60.8 °F 59.0 °F 94% 30.06 in 10.0 mi Calm Calm - N/A   Clear
10:35 PM 60.8 °F 59.0 °F 94% 30.07 in 10.0 mi West 3.5 mph - N/A   Clear
10:55 PM 59.0 °F 59.0 °F 100% 30.07 in 10.0 mi Calm Calm - N/A   Clear
11:15 PM 59.0 °F 59.0 °F 100% 30.08 in 10.0 mi Calm Calm - N/A   Clear
11:35 PM 59.0 °F 59.0 °F 100% 30.08 in 10.0 mi West 3.5 mph - N/A   Clear
11:55 PM 59.0 °F 59.0 °F 100% 30.07 in 10.0 mi West 3.5 mph - N/A   Clear